This is the latest recevied weather packets stored in our database for station/object N3TJJ-11. If no packets are shown the sender has not sent any weather packets the latest 1 day(s).
| Time | Temp. | Humidity | Pressure | Rain* | Wind** | Luminosity | Snow |
|---|---|---|---|---|---|---|---|
| 1778091223 | 15° C | 92% | 1005.7 hPa | 0 mm | - | - | - |
| 1778090623 | 15° C | 92% | 1005.9 hPa | 0 mm | - | - | - |
| 1778090023 | 14.44° C | 92% | 1006.1 hPa | 0 mm | - | - | - |
| 1778088222 | 14.44° C | 92% | 1005.8 hPa | 0 mm | - | - | - |
| 1778087502 | 14.44° C | 92% | 1005.8 hPa | 0 mm | - | - | - |
| 1778087023 | 14.44° C | 92% | 1005.7 hPa | 0 mm | - | - | - |
| 1778086423 | 14.44° C | 92% | 1005.8 hPa | 0 mm | - | - | - |
| 1778085823 | 14.44° C | 92% | 1005.7 hPa | 0.51 mm | - | - | - |
| 1778085223 | 14.44° C | 92% | 1005.9 hPa | 0.76 mm | - | - | - |
| 1778084623 | 14.44° C | 92% | 1005.8 hPa | 1.02 mm | - | - | - |
| 1778083424 | 14.44° C | 92% | 1005.6 hPa | 2.03 mm | - | - | - |
| 1778081023 | 14.44° C | 92% | 1006.6 hPa | 2.03 mm | - | - | - |
| 1778080423 | 14.44° C | 92% | 1006.6 hPa | 1.78 mm | - | - | - |
| 1778079823 | 14.44° C | 92% | 1006.7 hPa | 1.27 mm | - | - | - |
| 1778079223 | 14.44° C | 92% | 1006.7 hPa | 1.27 mm | - | - | - |
| 1778078623 | 14.44° C | 91% | 1006.6 hPa | 1.27 mm | - | - | - |
| 1778075629 | 14.44° C | 90% | 1006.6 hPa | 1.02 mm | - | - | - |
| 1778075023 | 15° C | 89% | 1006.6 hPa | 0.76 mm | - | - | - |
| 1778072023 | 15.56° C | 85% | 1006.7 hPa | 0 mm | - | - | - |
| 1778070823 | 15.56° C | 84% | 1006.9 hPa | 0 mm | - | - | - |
| 1778069624 | 16.11° C | 83% | 1006.9 hPa | 0 mm | - | - | - |
| 1778061833 | 16.11° C | 82% | 1006 hPa | 0 mm | - | - | - |
| 1778061223 | 16.11° C | 81% | 1005.8 hPa | 0 mm | - | - | - |
| 1778060024 | 16.11° C | 80% | 1005.8 hPa | 0 mm | - | - | - |
| 1778054627 | 16.67° C | 76% | 1006.3 hPa | 0 mm | - | - | - |
* Rain latest hour (hover to see other rain measurements)
** Current wind speed in m/s (hover to see current wind gust speed)